EST,Max TemperatureF,Mean TemperatureF,Min TemperatureF,Max Dew PointF,MeanDew PointF,Min DewpointF,Max Humidity, Mean Humidity, Min Humidity, Max Sea Level PressureIn, Mean Sea Level PressureIn, Min Sea Level PressureIn, Max VisibilityMiles, Mean VisibilityMiles, Min VisibilityMiles, Max Wind SpeedMPH, Mean Wind SpeedMPH, Max Gust SpeedMPH,PrecipitationIn, CloudCover, Events, WindDirDegrees
2012-12-1,55,45,35,37,35,28,76,63,47,30.38,30.33,30.28,10,10,10,15,4,16,0.00,1,,239
2012-12-2,60,52,44,43,40,36,87,70,39,30.35,30.30,30.24,10,10,10,7,1,,0.00,1,,193
2012-12-3,63,56,48,46,44,41,76,65,50,30.34,30.29,30.26,10,10,10,14,4,22,0.00,3,,278
2012-12-4,63,53,43,44,42,40,93,68,45,30.33,30.26,30.19,10,10,5,6,1,,0.00,3,,204
2012-12-5,58,47,37,49,33,13,90,56,23,30.24,30.19,30.14,10,10,5,13,6,21,0.00,3,,308
2012-12-6,42,36,29,34,28,19,85,70,52,30.25,30.19,30.15,10,10,10,7,2,,0.00,6,,150
2012-12-7,59,48,37,47,40,31,95,80,57,30.15,30.07,30.00,10,8,0,6,2,,0.00,6,Fog,168
2012-12-8,63,52,40,45,43,34,95,74,34,30.06,30.01,29.98,10,9,1,13,2,20,0.00,4,,242
2012-12-9,63,53,43,50,47,42,94,82,57,30.12,30.06,29.98,10,8,0,9,2,22,0.00,5,Fog,164
2012-12-10,59,53,47,51,48,42,94,83,63,29.98,29.79,29.70,10,10,5,16,4,32,0.00,7,Rain,181
2012-12-11,43,36,29,40,29,25,88,77,65,30.11,29.95,29.76,10,10,10,17,10,25,0.00,4,,327
2012-12-12,36,32,28,29,26,24,90,79,69,30.27,30.21,30.11,10,10,10,6,1,,0.00,3,,27
2012-12-13,45,37,29,25,20,13,80,56,32,30.34,30.29,30.22,10,10,10,5,2,,0.00,2,,53
2012-12-14,55,40,26,27,21,15,68,46,22,30.31,30.26,30.20,10,10,10,18,4,24,0.00,0,,272
2012-12-15,51,42,33,31,24,14,68,52,28,30.21,30.13,30.03,10,10,10,9,2,,0.00,3,,155
2012-12-16,50,45,40,49,43,32,95,90,65,30.02,29.96,29.88,10,6,0,6,2,,0.06,8,Rain,151
2012-12-17,49,46,42,46,43,38,95,89,68,29.87,29.76,29.64,10,7,0,13,2,26,0.01,6,Fog-Rain,209
2012-12-18,45,42,39,38,28,10,80,59,24,29.88,29.76,29.64,10,10,7,32,13,45,0.00,3,Rain,280
2012-12-19,52,46,40,31,25,9,67,46,22,30.11,30.00,29.86,10,10,10,41,18,56,0.00,0,,280
2012-12-20,42,37,32,40,32,23,96,83,61,30.11,29.85,29.50,10,7,0,40,4,52,0.32,5,Fog-Rain,175
2012-12-21,31,28,24,23,19,16,78,74,67,29.72,29.57,29.47,10,2,0,51,25,77,0.03,8,Snow,288
2012-12-22,39,30,21,17,10,-4,75,51,16,30.06,29.96,29.71,10,9,4,37,21,56,0.00,3,Snow,293
2012-12-23,47,38,30,39,17,0,90,44,24,30.06,30.01,29.96,10,10,7,20,11,28,0.00,2,Rain,272
2012-12-24,45,41,37,43,38,34,97,91,74,29.98,29.88,29.81,10,5,0,13,4,30,0.22,8,Fog-Rain,201
2012-12-25,47,42,37,37,35,33,93,78,62,30.05,29.99,29.90,10,10,4,14,6,31,0.00,5,Rain,181
2012-12-26,39,34,28,38,32,24,98,91,76,29.97,29.63,29.44,10,4,0,33,9,54,1.03,8,Fog-Rain-Snow,163
2012-12-27,32,28,25,24,23,21,91,82,66,30.00,29.81,29.57,10,8,2,48,26,78,0.01,5,Snow,291
2012-12-28,40,31,22,30,25,21,95,85,59,30.05,29.97,29.87,10,8,2,6,1,,0.06,5,,153
2012-12-29,36,30,25,32,27,17,97,83,67,29.87,29.74,29.63,10,6,0,31,7,53,0.27,8,Snow,287
2012-12-30,32,27,22,19,13,9,80,55,38,30.30,30.19,29.86,10,9,1,38,20,60,0.00,1,Snow,299
2012-12-31,43,34,24,17,2,-10,68,31,11,30.27,30.17,30.04,10,10,10,17,5,24,0.00,3,,257